[[{"header":{"parameterUnit":"m.s-1","parameterCategory":1,"la1":30.2992,"la2":30.254,"lo1":-89.0895,"lo2":-89.0443,"dy":0.0025,"dx":0.0025,"nx":19,"ny":19,"refTime":"2026-04-25T21:00:00:Z","depth":0,"parameterNumber":2,"parameterNumberName":"U-component_of_WINDS"},"data":[0,0,0,0.0765,0.0768,0.0909,0.091,0.1071,0.1073,0,0,0,0,0,0,0,0,0,0,0,0.0712,0.0712,0.0765,0.0768,0.0909,0.091,0.1071,0.1073,0,0,0,0,0,0,0,0,0,0,0,0.0711,0.0712,0.0713,0.0768,0.0909,0.091,0.1071,0.0971,0,0,0,0,0,0,0,0,0,0,0.0837,0.0777,0.0712,0.0713,0.0769,0.0908,0.091,0.0967,0.0977,0.0999,0,0.1016,0,0.1047,0.1082,0.1083,0,0,0,0.0776,0.0768,0.0816,0.0713,0.077,0.0908,0.0848,0.0973,0.0985,0.1013,0.1018,0.1025,0.1049,0.1083,0.1084,0.1182,0.1182,0,0,0.0769,0.0731,0.0808,0.0823,0.08,0.0843,0.0852,0.098,0.0983,0.1019,0.1029,0.1052,0.1084,0.1085,0.1182,0.1182,0,0,0,0.074,0.0725,0.0771,0.0816,0.0843,0.0847,0.0857,0.0978,0.0996,0.1031,0.1054,0.1085,0.1087,0.1182,0.1182,0.1147,0,0,0,0.0736,0.0709,0.0767,0.0745,0.084,0.0912,0.0851,0.0987,0.1002,0.1053,0.1085,0.1088,0.1182,0.1182,0.1148,0.1137,0,0,0,0.0706,0.0705,0.0722,0.0743,0.0802,0.0911,0.0937,0.0991,0.1016,0.1083,0.1089,0.1182,0.1182,0.1149,0.1139,0.1152,0,0,0,0.0663,0.0689,0.072,0.0758,0.0801,0.0888,0.0936,0.1004,0.1057,0.1086,0.1182,0.1182,0.1149,0.114,0.1153,0.1156,0.1154,0,0,0.0675,0.0689,0.0714,0.0747,0.0819,0.087,0.0938,0.1022,0.1064,0.114,0.1143,0.1148,0.1139,0.1152,0.1156,0.1154,0,0,0,0.0705,0.0723,0.075,0.0799,0.0864,0.0919,0.0998,0.1029,0.1096,0.1095,0.1158,0.1154,0.1163,0.1166,0.1165,0.1175,0.1182,0.1182,0.1182,0.0666,0.0718,0.0763,0.0831,0.0878,0.0958,0.1001,0.1057,0.1095,0.1109,0.1132,0.1128,0.113,0.113,0.114,0.1138,0.1138,0.1138,0.1138,0.0687,0.072,0.0771,0.0832,0.0886,0.0939,0.1018,0.1043,0.11,0.1115,0.1126,0.1138,0.1126,0.1137,0.1136,0.1136,0.1137,0.1137,0.1137,0.0667,0.0692,0.073,0.0806,0.0859,0.0927,0.098,0.1027,0.1072,0.1083,0.1112,0.1113,0.1119,0.1093,0.1093,0.1093,0.1093,0.1093,0.1093,0.0631,0.0676,0.0714,0.0785,0.0823,0.0879,0.096,0.0998,0.1053,0.1083,0.1084,0.112,0.1115,0.1113,0.1093,0.1093,0.1093,0.1093,0.1093,0.0633,0.0641,0.0699,0.0737,0.0825,0.0874,0.0935,0.1009,0.1048,0.1072,0.1106,0.1095,0.1113,0.1114,0.1113,0.1095,0.1095,0.1095,0.1095,0.0616,0.063,0.0701,0.0758,0.082,0.088,0.0945,0.1009,0.1075,0.1102,0.1112,0.1114,0.1113,0.1132,0.1133,0.1133,0.112,0.112,0.112,0.062,0.0642,0.0688,0.0754,0.0826,0.0887,0.095,0.1014,0.1091,0.1122,0.1125,0.1124,0.1127,0.1126,0.1157,0.1158,0.1157,0,0]},{"header":{"parameterUnit":"m.s-1","parameterCategory":1,"la1":30.2992,"la2":30.254,"lo1":-89.0895,"lo2":-89.0443,"dy":0.0025,"dx":0.0025,"nx":19,"ny":19,"refTime":"2026-04-25T21:00:00:Z","depth":0,"parameterNumber":3,"parameterNumberName":"V-component_of_WINDS"},"data":[0,0,0,4.789,4.7892,4.7978,4.7978,4.8087,4.8088,0,0,0,0,0,0,0,0,0,0,0,4.7869,4.787,4.789,4.7893,4.7978,4.7978,4.8087,4.8088,0,0,0,0,0,0,0,0,0,0,0,4.7868,4.7869,4.7871,4.7893,4.7978,4.7978,4.8087,4.8022,0,0,0,0,0,0,0,0,0,0,4.7938,4.7923,4.7869,4.7871,4.7893,4.7978,4.7978,4.8018,4.8026,4.805,0,4.8076,0,4.8084,4.8096,4.8096,0,0,0,4.7889,4.7917,4.7937,4.7871,4.7894,4.7977,4.7938,4.8022,4.8031,4.806,4.8077,4.8081,4.8086,4.8097,4.8097,4.8259,4.826,0,0,4.7884,4.7885,4.7931,4.7943,4.7933,4.7936,4.7941,4.8027,4.8045,4.8078,4.8084,4.8088,4.8097,4.8098,4.8258,4.8259,0,0,0,4.7873,4.7882,4.79,4.7938,4.7954,4.7938,4.7944,4.8041,4.8047,4.8085,4.8089,4.8098,4.81,4.8257,4.8259,4.8308,0,0,0,4.787,4.7876,4.7898,4.7899,4.7952,4.7999,4.7956,4.8041,4.8051,4.8088,4.8098,4.8101,4.8256,4.8258,4.8305,4.8331,0,0,0,4.7862,4.7875,4.7889,4.7899,4.7937,4.7998,4.8009,4.8043,4.8054,4.8096,4.8101,4.8255,4.8258,4.8301,4.8326,4.8375,0,0,0,4.7852,4.7929,4.7889,4.7976,4.7936,4.8029,4.8008,4.8076,4.8119,4.8099,4.8256,4.8258,4.83,4.8322,4.8372,4.8418,4.8438,0,0,4.7949,4.794,4.7991,4.7959,4.806,4.8016,4.8122,4.8158,4.8159,4.8225,4.8229,4.8306,4.8325,4.8375,4.8543,4.8559,0,0,0,4.8022,4.8059,4.8085,4.8128,4.816,4.8188,4.8208,4.8222,4.8279,4.8194,4.8336,4.8348,4.8377,4.8399,4.8412,4.8437,4.8268,4.8268,4.8268,4.816,4.816,4.8245,4.8256,4.8297,4.8318,4.8351,4.8372,4.8357,4.8391,4.841,4.8513,4.8539,4.8549,4.8575,4.8434,4.8434,4.8434,4.8434,4.8302,4.8355,4.8337,4.8413,4.8411,4.8473,4.8496,4.8484,4.854,4.8498,4.8523,4.8478,4.8566,4.8589,4.8438,4.8437,4.8437,4.8437,4.8436,4.8393,4.8419,4.8436,4.8499,4.8547,4.8553,4.861,4.8605,4.8601,4.8626,4.8647,4.8646,4.8645,4.8636,4.8637,4.8637,4.8637,4.8637,4.8638,4.8481,4.8499,4.8549,4.8591,4.8619,4.8654,4.8676,4.8702,4.8729,4.8721,4.8721,4.8704,4.8575,4.8543,4.8643,4.8642,4.8642,4.8641,4.8641,4.8627,4.8594,4.8671,4.87,4.8748,4.8796,4.8791,4.8844,4.8864,4.8892,4.8869,4.8774,4.8764,4.8753,4.8727,4.8869,4.8869,4.8869,4.8869,4.8705,4.87,4.8779,4.8825,4.8868,4.8872,4.8957,4.8974,4.8986,4.8999,4.8977,4.8942,4.8931,4.8927,4.8913,4.8888,4.9068,4.9068,4.9068,4.8795,4.8795,4.887,4.8886,4.8923,4.8955,4.9036,4.9086,4.9092,4.9076,4.9008,4.9,4.8943,4.8924,4.8907,4.8885,4.884,0,0]}]]